Weather History for Laramie, WY

Change the Weather History Date:

Wednesday, May 8, 2013

  Actual Average Record
Temperature  
Mean Temperature 44 °F 45 °F  
Max Temperature 56 °F 59 °F 75 °F (1985)
Min Temperature 32 °F 31 °F 19 °F (1984)
Degree Days  
Heating Degree Days 21 20  
Month to date heating degree days 221 169  
Since 1 July heating degree days 8161 8218  
Cooling Degree Days 0 0  
Month to date cooling degree days 0 0  
Year to date cooling degree days 0 0  
Moisture  
Dew Point 36 °F    
Average Humidity 73    
Maximum Humidity 100    
Minimum Humidity 46    
Precipitation  
Precipitation 0.06 in 0.04 in 0.61 in (1958)
Month to date precipitation 0.21 0.36  
Year to date precipitation 2.19 2.62  
Sea Level Pressure  
Sea Level Pressure 29.97 in    
Wind  
Wind Speed 8 mph (ESE)    
Max Wind Speed 30 mph    
Max Gust Speed 39 mph    
Visibility 10 miles    
Events Rain , Thunderstorm    
T = Trace of Precipitation, MM = Missing Value Source: NWS Daily Summary

Daily Weather History Graph

Daily Weather History Graph

Search for Another Location

Airport:

Trip Planner

Search our weather history database for the weather conditions in past years. The results will help you decide how hot, cold, wet, or windy it might be!

Date:

Astronomy

May. 08, 2013 Rise Set
Actual Time 5:51 AM MDT 8:07 PM MDT
Civil Twilight 5:20 AM MDT 8:38 PM MDT
Nautical Twilight 4:42 AM MDT 9:16 PM MDT
Astronomical Twilight 4:00 AM MDT 9:58 PM MDT
Moon 5:01 AM MDT (5/8) 7:08 PM MDT (5/8)
Length of Visible Light 15h 18m
Length of Day
14h 16m
Waning Crescent, 2% of the Moon is Illuminated
May 8
Waning Crescent
May 9
New
May 17
First Quarter
May 24
Full
May 31
Last Quarter

Hourly Weather History & Observations

Time (MDT) Temp. Windchill Dew Point Humidity Pressure Visibility Wind Dir Wind Speed Gust Speed Precip Events Conditions
12:53 AM 39.9 °F 34.5 °F 39.0 °F 97% 29.88 in 10.0 mi SSE 8.1 mph - N/A   Clear
1:53 AM 37.0 °F 31.6 °F 37.0 °F 100% 29.91 in 10.0 mi South 6.9 mph - N/A   Clear
2:53 AM 35.1 °F 30.1 °F 34.0 °F 96% 29.89 in - Variable 5.8 mph - N/A   Clear
3:53 AM 34.0 °F - 32.0 °F 92% 29.89 in - Calm Calm - N/A   Clear
4:53 AM 34.0 °F 29.8 °F 33.1 °F 96% 29.88 in - SE 4.6 mph - N/A   Clear
5:53 AM 32.0 °F - 32.0 °F 100% 29.91 in - Calm Calm - N/A   Clear
6:53 AM 35.1 °F 31.0 °F 33.1 °F 92% 29.93 in 10.0 mi WSW 4.6 mph - N/A   Scattered Clouds
7:53 AM 39.9 °F - 37.9 °F 93% 29.93 in - Calm Calm - N/A   Overcast
8:53 AM 44.1 °F - 37.9 °F 79% 29.95 in - Calm Calm - N/A   Overcast
9:53 AM 48.0 °F - 39.0 °F 71% 29.89 in 10.0 mi NNW 3.5 mph - N/A   Overcast
10:53 AM 51.1 °F - 35.1 °F 54% 29.91 in 10.0 mi NNE 20.7 mph 31.1 mph N/A   Mostly Cloudy
11:53 AM 53.1 °F - 35.1 °F 50% 29.89 in 10.0 mi NE 20.7 mph - 0.00 in   Mostly Cloudy
12:43 PM 51.8 °F - 33.8 °F 50% 30.07 in 10.0 mi ENE 17.3 mph - N/A Thunderstorm Mostly Cloudy
12:53 PM 54.0 °F - 34.0 °F 47% 29.89 in 10.0 mi NE 17.3 mph - N/A   Overcast
1:36 PM 53.6 °F - 35.6 °F 51% 30.07 in 10.0 mi North 11.5 mph 23.0 mph N/A   Overcast
1:53 PM 51.1 °F - 34.0 °F 52% 29.92 in 10.0 mi East 26.5 mph 35.7 mph N/A   Overcast
2:05 PM 51.8 °F - 33.8 °F 50% 30.08 in 10.0 mi East 23.0 mph 33.4 mph 0.00 in Rain Light Rain
2:13 PM 51.8 °F - 33.8 °F 50% 30.08 in 10.0 mi East 17.3 mph 24.2 mph 0.00 in Rain , Thunderstorm Light Rain
2:28 PM 51.8 °F - 32.0 °F 47% 30.08 in 10.0 mi East 17.3 mph - 0.00 in   Overcast
2:53 PM 50.0 °F - 35.1 °F 57% 29.95 in 10.0 mi ESE 16.1 mph - 0.00 in   Overcast
3:53 PM 51.1 °F - 35.1 °F 54% 29.94 in 10.0 mi SE 8.1 mph - 0.00 in   Overcast
4:53 PM 46.9 °F - 37.0 °F 68% 29.97 in 10.0 mi ESE 17.3 mph 29.9 mph N/A   Overcast
5:53 PM 50.0 °F - 37.9 °F 63% 29.98 in 10.0 mi Calm Calm - N/A   Clear
6:53 PM 46.0 °F - 37.0 °F 71% 29.99 in 7.0 mi Calm Calm - 0.06 in Rain Light Rain
7:30 PM 46.4 °F 41.1 °F 42.8 °F 87% 30.11 in 10.0 mi ESE 11.5 mph - 0.00 in   Overcast
7:53 PM 44.1 °F 40.1 °F 43.0 °F 96% 30.00 in 10.0 mi SSE 6.9 mph - 0.00 in   Overcast
8:53 PM 43.0 °F 40.3 °F 39.0 °F 86% 30.00 in 10.0 mi South 4.6 mph - N/A   Mostly Cloudy
9:53 PM 41.0 °F 39.0 °F 37.0 °F 86% 30.00 in 10.0 mi WSW 3.5 mph - N/A   Partly Cloudy
10:53 PM 39.0 °F 34.0 °F 37.0 °F 93% 30.01 in - South 6.9 mph - N/A   Mostly Cloudy
11:53 PM 39.0 °F 35.7 °F 37.0 °F 93% 30.01 in - WNW 4.6 mph - N/A   Mostly Cloudy